Weather Service Report


234 
ASUS41 KGYX 150910
RWRGYX
WEATHER ROUNDUP FOR MAINE AND NEW HAMPSHIRE
NATIONAL WEATHER SERVICE GRAY ME
500 AM EDT MON SEP 15 2014

MEZ002-005-006-010-012-015-018-020-021-024-026-027-029-151000-
MAINE
  
CITY           SKY/WX    TMP DP  RH WIND       PRES   REMARKS
PORTLAND       PTCLDY    44  40  85 NW3       30.24R                  
SANFORD        CLOUDY    45  37  76 W3        30.24R                  
BAR HARBOR     PTCLDY    39  39 100 CALM      30.21R                  
WISCASSET      CLOUDY    41  39  93 CALM      30.24R                  
ROCKLAND       CLOUDY    45  39  81 W3        30.21R                  
FRYEBURG       FOG       31  31 100 CALM      30.24R VSB 1/4          
LEWISTONAUBURN CLOUDY    39  36  87 CALM      30.22S                  
AUGUSTA        MOCLDY    41  38  89 CALM      30.22R                  
WATERVILLE     PTCLDY    43  34  70 CALM      30.17R                  
BANGOR         CLEAR     37  34  89 CALM      30.20S                  
GREENVILLE       N/A     43  37  79 CALM      30.15S                  
MILLINOCKET    CLEAR     39  35  86 CALM      30.19S                  
HOULTON        CLOUDY    44  41  89 CALM      30.16R                  
PRESQUE ISLE   NOT AVBL                                               
FRENCHVILLE    CLOUDY    39  37  92 W9        30.13R                  
CARIBOU        CLOUDY    42  38  85 W5        30.14R                  
$$

NHZ002-005-008-009-011-012-014-151000-
NEW HAMPSHIRE
  
CITY           SKY/WX    TMP DP  RH WIND       PRES   REMARKS
ROCHESTER      CLOUDY    45  42  89 NW3       30.23R                  
NASHUA         CLEAR     40  38  93 CALM      30.25R                  
MANCHESTER     CLEAR     43  38  82 N3        30.23R                  
CONCORD        CLOUDY    40  38  93 CALM      30.25R                  
LACONIA        MOCLDY    43  39  87 CALM      30.22R                  
PLYMOUTH       CLOUDY    36  36 100 CALM      30.24S FOG              
BERLIN         FOG       33  33 100 CALM      30.23R VSB 1/4          
WHITEFIELD     FOG       31  29  92 CALM      30.24R VSB 1/2          
JAFFREY        CLOUDY    37  35  92 CALM      30.24R                  
LEBANON        CLOUDY    41  38  89 CALM      30.24R                  
MT WASHINGTON  PTCLDY    28  16  59 NW29        N/A  WCI  13          
$$

VTZ005-007-008-151000-
VERMONT
  
CITY           SKY/WX    TMP DP  RH WIND       PRES   REMARKS
ST JOHNSBURY     N/A     35  35 100 MISG      30.24R                  
MONTPELIER     FOG       34  34 100 CALM      30.27R VSB 1/4          
BURLINGTON     CLEAR     38  36  92 CALM      30.24S                  
$$

MAZ007-012-024-CTZ003-RIZ002-NYZ038-NYZ072-151000-
SOUTHERN NEW ENGLAND AND NY
  
CITY           SKY/WX    TMP DP  RH WIND       PRES   REMARKS
BOSTON         PTCLDY    48  42  80 NW10      30.23R                  
WORCESTER      PTCLDY    45  39  79 NE7       30.22R                  
NANTUCKET      PTCLDY    50  46  86 E5        30.19S                  
PROVIDENCE     MOCLDY    49  43  80 N8        30.23R                  
HARTFORD       MOCLDY    47  42  83 N7        30.24R                  
ALBANY         MOCLDY    46  42  86 CALM      30.25R                  
NEW YORK CITY  CLEAR     56  45  66 N8        30.21R                  
$$

ANZ081-ANZ082-ANZ150-NHZ014-MEZ023>029-151000-
COASTAL MARINE OBSERVATIONS
  
STATION/POSITION TIME  TEMP    WIND        PRES    WAVE
                       AIR SEA DIR/SP/G            HT/PER
                 (UTC) (F)     (DEG/KT/KT) (MB)    (FT/S)
MOUNT DESERT ROC 0800   50                 1022.1F
MATINICUS ROCK   0900           10/  8/  9 1022.5R
PORTLAND WX BUOY 0850   52 59   30/  8/ 12 1023.2R   2/ 8
WELLS            0800   48 59  330/  5/  6 1022.7R
ISLE OF SHOALS   0900   52      10/  8/ 10 1023.1R
JEFFREYS LEDGE   0821      61                N/A     4/ 4
CASHES LEDGE BUO 0850   54 63              1022.5R   2/ 4
$$

.............KEY..............
   WCI - WIND CHILL
   TC  - TEMPERATURE IN CELSIUS
   VSB - VISIBILITY IN MILES
   HX  - HEAT INDEX
   FAIR- INDICATES FEW OR NO CLOUDS BELOW 12,000 FT, WITH NO 
         SIGNIFICANT WEATHER AND/OR OBSTRUCTIONS TO VISIBILITY.



Return to Home page


Western Regional Climate Center, wrcc@dri.edu